STARLINK-5628, 55466

Orbit data source: Space-Track

STARLINK-5628, 55466 is a payload satellite owned by SpaceX/Seattle (US) in LEO that was launched on Thu, 02 Feb 2023 UTC via an FALCON 9 launch vehicle from the Air Force Eastern Test Range (AFETR). Payload-class satellites include a variety of spacecraft equipped with specific instruments for various scientific and technological missions. These include communications satellites like Starlink; space stations such as the ISS; scientific satellites like the Hubble; Earth observation satellites from companies like Planet Labs, Umbra, and HawkEye 360; GPS; miniature CubeSats for education and research; and military/defense satellites.

Loading next visibility...
Identifier
55466, 2023-015T
Orbit
LEO
Country
Flag of USUS
Related business
Manufacturer
SpaceX/Seattle
Mission
Operational Commercial Communications
Bus & Motor
STARLINK, Unknown motor
Mass
305 kg wet, ~290 kg dry
Launch date (UTC)
2023-02-02 (3 years ago)
Launch vehicle
FALCON 9
Launch site
Air Force Eastern Test Range (AFETR)
Object type
Payload
Rocket body
Debris
Shape & HBR
Box + 1 Pan, 10.1 m
Radar Cross Section
13.562 m², Large (>1 m²)

Expand to show TLE details & history
Last TLE update: 18 hours ago

TLE from 18 hours ago
0 STARLINK-5628
1 55466U 23015T   25352.56024894  .00000189  00000-0  29044-4 0  9993
2 55466  43.0050  46.5109 0001447 265.0979  94.9699 15.02536470158552
Epoch: 2025-12-18T13:26Z
TLE epoch observation values (Epoch: 2025-12-18T13:26:45.508Z)
Latitude
0.00004°
Longitude
117.40732°
Altitude
558.944 km
Speed
7.584 km/s
True Right ascension
03h 06m 02s
True Declination
0° 00' 00"
Sunlit
Object was in full shadow at epoch
Visualization orbit readout
Latitude
Unknown
Longitude
Unknown
Altitude
Unknown
Speed
Unknown
Apparent Right ascension
Unknown
Apparent Declination
Unknown
Sunlit
N/A
Visualization observer readout
Local Sidereal Time
06:16:20
Azimuth
Unknown
Elevation
Unknown
Doppler factor
Unknown
Orbital elements
Apogee altitude
562.005 km
Perigee altitude
559.997 km
Semi-major axis
6,939.138 km
Eccentricity
0.00014
Inclination
43.005°
RAAN
46.5109°
Arg. of periapsis
265.0979°
True anomaly
94.98642°
Mean anomaly
94.9699°
Eccentric anomaly
94.97816°
Mean motion
3.75478 °/min
Orbital period
95.88 mins
BSTAR
0.000029044
Loading maneuver chart data...
Computing Atmospheric mass density...
Loading historical data...
Loading historical data...
Loading historical data...
Loading historical data...
Loading historical data...
Loading historical data...
Loading historical data...

Documentation

Showing up to 5 results
|